Content
SEND FEEDBACK

Daily
Averages
Monthly
Summary
Switzerland

VERSOIX, SWITZERLAND


Home > Europe > Switzerland
Elevation: 1365 feet     Latitude: 46 12N     Longitude: 006 12E

WEATHER
 
SELECT A DAY
Number of Records: 305,729;   Date Range: 7/1/96 - 7/29/14
 
SHARE

PRINT THIS DATA

[ ← Previous Day ]
WEATHER ALMANAC - MARCH 3, 2013
[ Next Day → ]
[ °C ]   °F
Weather ElementAverageHighLow
Temperature35 °F42.8 °F (4:20 pm)28.4 °F (11:20 pm)
Dewpoint28.7 °F32 °F (6:20 pm)26.6 °F (10:50 pm)
Humidity76 %93 % (9:20 pm)52 % (5:00 pm)
Barometer30.12 in30.22 in (1:00 am)30.04 in (5:20 pm)
Wind Speed3.5 mph6.9 mph (12:00 pm)
Weather ElementAverage
Visibility3.6 mi
Wind DirectionENE (70 °)

Weather ElementTotal
Precipitation---
Heating Degree Days29.4 (Base 65)
Averaged from 65 records on March 3, 2013
WEATHER CONDITIONS BREAKOUT
WIND DIRECTION BREAKOUT
WEATHER BY HOUR - MARCH 3, 2013
[ °C ]   °F
Local TimeTemperatureDewpointHumidityBarometerVisibilityWind DirectionWind SpeedGust SpeedPrecipitationEventsConditions
12:20 AM33.8 °F28.4 °F81 %30.15 in4.3 miVariable2.3 mphOvercast
12:50 AM33.8 °F28.4 °F81 %30.15 in4.3 miVariable2.3 mphOvercast
1:00 AM33.0 °F27.0 °F71 %30.22 in4.0 miNorth3.5 mphMist
1:20 AM33.8 °F28.4 °F81 %30.15 in5.0 miVariable3.5 mphOvercast
1:50 AM33.8 °F28.4 °F81 %30.15 in5.0 miVariable1.2 mphOvercast
2:00 AM33.0 °F27.0 °F71 %30.22 inNorth3.5 mph
2:50 AM33.8 °F28.4 °F81 %30.15 in4.3 miVariable1.2 mphOvercast
3:00 AM33.0 °F27.0 °F70 %30.22 inNNW (340°)2.3 mph
3:20 AM33.8 °F28.4 °F81 %30.15 in4.3 miVariable1.2 mphOvercast
3:50 AM33.8 °F28.4 °F81 %30.12 in4.3 miVariable2.3 mphOvercast
4:20 AM33.8 °F28.4 °F81 %30.12 in4.3 miVariable2.3 mphOvercast
4:50 AM33.8 °F28.4 °F81 %30.12 in3.7 miVariable1.2 mphOvercast
5:00 AM33.0 °F27.0 °F72 %30.20 inNorth (350°)2.3 mph
5:20 AM33.8 °F28.4 °F81 %30.12 in3.7 miVariable2.3 mphOvercast
5:50 AM32.0 °F28.4 °F87 %30.12 in3.7 miVariable2.3 mphOvercast
6:00 AM33.0 °F27.0 °F71 %30.20 inNNW (330°)2.3 mph
6:20 AM32.0 °F28.4 °F87 %30.12 in3.7 miVariable1.2 mphOvercast
6:50 AM32.0 °F28.4 °F87 %30.12 in3.7 miVariable2.3 mphOvercast
7:00 AM32.0 °F27.0 °F74 %30.19 in4.0 miNW (320°)3.5 mphMist
7:20 AM32.0 °F28.4 °F87 %30.12 in3.1 miVariable1.2 mphOvercast
7:50 AM32.0 °F28.4 °F87 %30.12 in2.5 miVariable2.3 mphOvercast
8:00 AM33.0 °F28.0 °F73 %30.20 inNorth (350°)3.5 mph
8:20 AM33.8 °F28.4 °F81 %30.12 in2.5 miVariable3.5 mphOvercast
8:50 AM33.8 °F28.4 °F81 %30.12 in3.1 miVariable2.3 mphOvercast
9:00 AM33.0 °F28.0 °F73 %30.20 inNNE (20°)5.8 mph
9:20 AM33.8 °F28.4 °F81 %30.12 in3.1 miNorth (10°)4.6 mphOvercast
9:50 AM33.8 °F28.4 °F81 %30.12 in3.1 miNorth (10°)3.5 mphOvercast
10:20 AM33.8 °F28.4 °F81 %30.12 in3.1 miNorth (360°)3.5 mphOvercast
10:50 AM33.8 °F28.4 °F81 %30.12 in3.1 miVariable3.5 mphOvercast
11:00 AM35.0 °F28.0 °F67 %30.18 inNNE (20°)5.8 mph
11:20 AM35.6 °F28.4 °F75 %30.12 in3.1 miNNE (20°)3.5 mphOvercast
11:50 AM35.6 °F28.4 °F75 %30.12 in3.1 miNE (50°)5.8 mphOvercast
12:00 PM35.0 °F28.0 °F67 %30.18 inNNE (30°)6.9 mph
12:20 PM35.6 °F28.4 °F75 %30.09 in3.1 miNNE (30°)4.6 mphOvercast
12:50 PM37.4 °F30.2 °F75 %30.09 in3.1 miENE (70°)5.8 mphOvercast
1:00 PM36.0 °F28.0 °F63 %30.16 in3.0 miENE (70°)6.9 mphMist
1:20 PM37.4 °F28.4 °F70 %30.09 in3.1 miENE (70°)5.8 mphMostly Cloudy
1:50 PM39.2 °F30.2 °F70 %30.09 in3.1 miEast (80°)4.6 mphMostly Cloudy
2:00 PM39.0 °F29.0 °F56 %30.14 inENE (60°)3.5 mph
2:20 PM39.2 °F30.2 °F70 %30.06 in3.1 miENE (60°)4.6 mphScattered Clouds
2:50 PM41.0 °F30.2 °F65 %30.06 in3.1 miVariable3.5 mphMist
3:00 PM39.0 °F29.0 °F57 %30.12 inNNE (20°)4.6 mph
3:20 PM41.0 °F30.2 °F65 %30.06 in3.7 miNE (50°)5.8 mph
3:50 PM41.0 °F30.2 °F65 %30.06 in3.7 miNE (50°)4.6 mph
4:20 PM42.8 °F30.2 °F61 %30.06 in3.7 miENE (60°)6.9 mph
4:50 PM42.8 °F30.2 °F61 %30.06 in3.7 miNE (50°)6.9 mph
5:00 PM41.0 °F29.0 °F52 %30.10 inNE (50°)6.9 mph
5:20 PM41.0 °F30.2 °F65 %30.04 in3.7 miNE (50°)5.8 mph
5:50 PM41.0 °F30.2 °F65 %30.04 in3.7 miNE (40°)6.9 mph
6:00 PM40.0 °F30.0 °F57 %30.10 inNE (40°)5.8 mph
6:20 PM39.2 °F32.0 °F75 %30.06 in3.1 miNE (40°)4.6 mphMist
6:50 PM37.4 °F32.0 °F81 %30.06 in3.1 miNNE (30°)3.5 mphMist
7:00 PM37.0 °F30.0 °F69 %30.12 in3.0 miNNE (30°)3.5 mphMist
7:20 PM37.4 °F30.2 °F75 %30.06 in3.7 miNE (40°)2.3 mphMist
7:50 PM35.6 °F30.2 °F81 %30.06 in4.3 miVariable2.3 mph
8:00 PM36.0 °F30.0 °F71 %30.14 inNE (40°)2.3 mph
8:20 PM33.8 °F30.2 °F87 %30.06 in4.3 miVariable1.2 mph
8:50 PM32.0 °F28.4 °F87 %30.06 in4.3 miVariable1.2 mph
9:20 PM30.2 °F28.4 °F93 %30.09 in4.3 miNW (320°)2.3 mph
9:50 PM30.2 °F28.4 °F93 %30.09 in3.7 miVariable1.2 mph
10:20 PM30.2 °F28.4 °F93 %30.09 in3.7 miVariable1.2 mph
10:50 PM30.2 °F26.6 °F86 %30.09 in3.1 miWest (260°)1.2 mphMist
11:00 PM29.0 °F27.0 °F89 %30.18 inWSW (250°)1.2 mph
11:20 PM28.4 °F26.6 °F93 %30.09 in3.1 miSW (230°)2.3 mphMist
11:50 PM30.2 °F26.6 °F86 %30.09 in3.1 miWSW (250°)2.3 mphMist
Hourly data recorded from LSGG, located miles away from Versoix, Switzerland







STORIES FROM OUR PARTNERS